LTCG

Trabzon Airport

Airport
ICAO code
LTCG
IATA Code
TZX
Summary
ICAO Region
EUR
ICAO Territory
Location

Trabzon,

Serving
Trabzon
Elevation
104 ft
Coordinates
40° 59' 43" N , 39° 47' 20" E
Metar
LTCG 201620Z 10007KT 9999 SCT100 14/13 Q1003 NOSIG

Trabzon Airport is an airport near the city of Trabzon in the eastern Black Sea region of Turkey.

Runways

Designator Length Width Surface Rops
11/29 2640 45 ASP Yes/Yes

Airport map

Aerial View

SKYbrary Partners:

Safety knowledge contributed by: